Temp
-14 -14 -14 -14 -14 -14 -14 -14 -14 -14 -14 -13 -13 -13 -13 -13 -13 -13 -13 -13 -14 -14 -14 -14 -14 -14 -14 -14 -14 -14 -14 -13 -13 -13 -13 -13 -13 -13 -13 -13 -13 -13
-14 -14 -14 -14 -14 -14 -14 -14 -14 -14 -14 -14 -14 -14 -14 -14 -13 -13 -13 -13 -13 -13 -13 -14 -14 -14 -14 -14 -14 -14 -14 -14 -14 -14 -14 -14 -13 -13 -13 -13 -13 -13
-14 -14 -14 -14 -14 -14 -14 -14 -14 -14 -14 -14 -14 -14 -14 -14 -14 -14 -14 -14 -14 -14 -13 -13 -13 -14 -14 -14 -14 -14 -14 -14 -14 -14 -14 -14 -14 -14 -13 -13 -13 -13
-14 -14 -14 -14 -14 -14 -15 -15 -15 -15 -14 -14 -14 -14 -14 -14 -14 -14 -14 -14 -14 -14 -14 -14 -14 -14 -14 -14 -14 -14 -14 -14 -14 -14 -14 -14 -14 -14 -14 -14 -14 -13
-15 -14 -14 -14 -15 -15 -15 -15 -15 -15 -15 -15 -15 -15 -14 -14 -14 -14 -14 -15 -15 -14 -14 -14 -14 -14 -14 -14 -14 -14 -14 -14 -14 -14 -14 -14 -14 -14 -14 -14 -14 -14
-15 -15 -15 -15 -15 -15 -15 -15 -15 -15 -15 -15 -15 -15 -15 -14 -14 -14 -14 -14 -14 -14 -14 -14 -14 -14 -14 -14 -14 -14 -14 -14 -14 -14 -14 -13 -13 -14 -14 -14 -14 -14
-15 -15 -15 -15 -15 -15 -15 -15 -15 -15 -15 -15 -15 -15 -15 -15 -15 -14 -14 -14 -14 -14 -14 -14 -14 -14 -14 -14 -14 -14 -14 -14 -14 -14 -14 -14 -13 -13 -13 -13 -14 -14
-15 -15 -15 -15 -15 -15 -15 -15 -15 -15 -15 -15 -15 -15 -15 -15 -15 -15 -15 -15 -15 -15 -15 -15 -15 -15 -15 -15 -14 -14 -14 -14 -14 -14 -14 -14 -14 -14 -13 -13 -13 -13
-15 -15 -15 -15 -15 -15 -15 -15 -15 -15 -16 -16 -16 -16 -16 -16 -16 -16 -16 -16 -15 -15 -15 -15 -15 -15 -15 -15 -15 -15 -15 -14 -14 -14 -14 -14 -14 -14 -14 -14 -13 -13
-15 -15 -16 -15 -15 -15 -15 -15 -15 -16 -16 -16 -16 -16 -16 -16 -16 -16 -16 -16 -16 -16 -16 -15 -15 -15 -15 -15 -15 -15 -15 -14 -14 -14 -14 -14 -14 -14 -14 -14 -14 -14
-15 -15 -15 -15 -15 -15 -15 -15 -15 -15 -15 -15 -15 -16 -16 -16 -16 -15 -15 -16 -16 -16 -15 -15 -15 -15 -15 -15 -15 -15 -15 -15 -14 -14 -14 -14 -14 -14 -14 -14 -14 -14
-15 -15 -15 -15 -15 -15 -15 -15 -15 -15 -15 -15 -15 -15 -15 -15 -15 -15 -15 -15 -15 -15 -15 -15 -15 -15 -15 -15 -15 -15 -15 -15 -15 -15 -15 -15 -15 -15 -15 -14 -14 -14
-15 -15 -15 -15 -15 -15 -15 -15 -15 -15 -15 -15 -15 -15 -16 -16 -16 -15 -15 -15 -15 -15 -15 -15 -15 -15 -15 -15 -15 -15 -15 -15 -15 -15 -15 -15 -15 -15 -15 -15 -15 -15
-15 -15 -15 -15 -15 -15 -15 -15 -15 -15 -15 -15 -16 -16 -16 -16 -16 -16 -16 -15 -15 -15 -15 -15 -15 -15 -15 -15 -15 -16 -15 -15 -15 -15 -15 -15 -15 -15 -15 -15 -15 -15
-15 -15 -15 -15 -15 -15 -15 -15 -16 -16 -16 -16 -16 -16 -16 -16 -16 -16 -16 -15 -15 -15 -15 -15 -15 -15 -15 -15 -15 -15 -15 -15 -15 -15 -15 -15 -15 -16 -16 -15 -15 -15
-15 -15 -15 -15 -15 -15 -16 -16 -16 -16 -16 -16 -16 -16 -16 -16 -16 -16 -16 -16 -16 -15 -15 -15 -15 -15 -15 -16 -16 -16 -16 -15 -15 -15 -15 -15 -15 -15 -15 -15 -15 -15
-15 -15 -15 -15 -15 -16 -16 -16 -16 -16 -16 -16 -16 -16 -16 -16 -16 -16 -16 -16 -16 -16 -16 -16 -15 -16 -16 -16 -16 -16 -16 -16 -15 -15 -15 -15 -15 -15 -15 -15 -15 -15
-16 -16 -16 -16 -15 -16 -16 -16 -16 -16 -16 -16 -16 -16 -16 -16 -16 -16 -16 -16 -16 -16 -16 -16 -16 -16 -16 -16 -16 -16 -16 -16 -16 -16 -16 -15 -15 -15 -15 -15 -15 -15
-16 -16 -16 -16 -16 -16 -16 -16 -16 -16 -16 -16 -16 -16 -16 -16 -16 -16 -17 -17 -16 -16 -16 -16 -16 -16 -16 -16 -16 -16 -16 -16 -16 -16 -16 -16 -16 -15 -15 -15 -15 -15
-16 -16 -16 -16 -16 -16 -16 -16 -16 -16 -16 -16 -16 -16 -16 -16 -16 -16 -16 -16 -17 -17 -17 -17 -17 -16 -16 -16 -16 -16 -16 -16 -16 -16 -16 -16 -16 -15 -15 -15 -15 -15
-16 -16 -16 -16 -16 -16 -16 -16 -16 -16 -16 -16 -16 -16 -16 -16 -16 -16 -16 -17 -17 -17 -17 -17 -17 -17 -17 -16 -16 -16 -16 -16 -16 -16 -16 -16 -16 -16 -16 -16 -16 -16
-16 -16 -16 -16 -16 -16 -16 -16 -16 -16 -16 -16 -16 -16 -16 -16 -17 -16 -16 -17 -17 -17 -17 -17 -17 -17 -17 -17 -16 -16 -16 -16 -16 -16 -16 -16 -16 -16 -16 -16 -16 -16
-16 -16 -16 -16 -16 -16 -16 -16 -16 -16 -16 -16 -16 -16 -16 -16 -17 -17 -16 -16 -16 -17 -17 -17 -17 -17 -17 -16 -16 -16 -16 -16 -16 -16 -16 -17 -16 -16 -16 -16 -16 -16
-17 -16 -17 -17 -17 -16 -16 -16 -16 -16 -16 -16 -16 -16 -16 -16 -17 -17 -16 -16 -16 -17 -17 -17 -17 -17 -17 -16 -16 -16 -16 -16 -16 -16 -16 -17 -16 -16 -16 -16 -16 -16
-17 -17 -17 -17 -17 -17 -17 -17 -17 -16 -16 -16 -16 -16 -16 -16 -16 -17 -16 -16 -16 -16 -17 -17 -17 -17 -17 -17 -16 -16 -16 -16 -17 -17 -17 -17 -17 -17 -17 -16 -16 -16
-17 -17 -17 -17 -17 -17 -17 -17 -17 -17 -17 -17 -17 -16 -16 -16 -17 -17 -17 -17 -17 -17 -17 -17 -17 -17 -17 -17 -17 -17 -17 -17 -17 -17 -17 -17 -17 -17 -17 -17 -17 -17
Height
5796 5797 5797 5799 5799 5800 5800 5801 5801 5802 5803 5804 5805 5805 5805 5806 5806 5807 5807 5807 5808 5808 5809 5810 5811 5811 5812 5813 5813 5814 5815 5815 5816 5818 5818 5819 5819 5820 5820 5821 5821 5822
5793 5793 5794 5795 5796 5796 5797 5797 5798 5799 5799 5800 5801 5802 5803 5803 5804 5804 5805 5805 5806 5806 5807 5807 5808 5809 5809 5810 5811 5811 5812 5812 5813 5814 5815 5816 5816 5817 5817 5818 5819 5819
5789 5790 5790 5791 5792 5792 5793 5794 5795 5795 5796 5796 5797 5798 5799 5800 5801 5802 5802 5803 5803 5804 5804 5805 5806 5806 5806 5807 5807 5808 5809 5809 5810 5811 5812 5812 5813 5813 5814 5815 5815 5816
5786 5786 5787 5787 5788 5788 5789 5790 5791 5791 5792 5792 5793 5794 5795 5796 5797 5798 5799 5800 5800 5801 5802 5803 5803 5803 5804 5804 5804 5805 5805 5806 5806 5807 5808 5809 5809 5810 5810 5811 5812 5812
5782 5783 5783 5783 5784 5784 5785 5785 5786 5786 5787 5788 5788 5789 5790 5791 5792 5793 5794 5795 5796 5797 5798 5799 5800 5800 5800 5800 5801 5801 5802 5802 5803 5803 5804 5805 5806 5806 5807 5807 5808 5808
5779 5779 5779 5779 5780 5780 5780 5780 5781 5781 5782 5783 5783 5784 5784 5785 5787 5788 5789 5790 5791 5793 5794 5795 5796 5796 5796 5797 5797 5797 5798 5798 5799 5799 5800 5801 5802 5802 5803 5803 5804 5804
5775 5775 5775 5775 5776 5776 5776 5776 5777 5777 5778 5778 5779 5779 5779 5780 5781 5782 5783 5785 5786 5787 5788 5789 5790 5791 5791 5792 5792 5793 5793 5794 5794 5795 5795 5796 5797 5798 5798 5799 5799 5800
5771 5771 5771 5771 5772 5772 5773 5773 5773 5774 5774 5774 5774 5774 5775 5775 5776 5777 5778 5779 5780 5781 5782 5783 5784 5785 5786 5787 5787 5788 5788 5789 5790 5790 5790 5791 5792 5792 5793 5794 5795 5795
5767 5767 5768 5768 5768 5769 5769 5769 5769 5769 5769 5769 5769 5769 5770 5770 5770 5771 5772 5773 5774 5775 5776 5777 5779 5779 5780 5781 5782 5783 5783 5784 5785 5785 5785 5786 5787 5787 5787 5788 5789 5790
5763 5764 5764 5764 5764 5764 5764 5764 5764 5764 5764 5765 5765 5765 5765 5765 5765 5766 5767 5768 5769 5770 5771 5772 5773 5774 5774 5775 5776 5777 5778 5778 5779 5780 5780 5781 5781 5782 5782 5783 5784 5784
5759 5760 5760 5760 5760 5760 5760 5760 5759 5759 5759 5759 5760 5760 5760 5760 5761 5761 5762 5763 5764 5765 5766 5766 5767 5768 5769 5770 5771 5771 5772 5773 5773 5774 5774 5775 5776 5776 5777 5777 5778 5779
5755 5755 5756 5756 5757 5756 5755 5754 5754 5754 5754 5754 5754 5754 5754 5755 5756 5756 5757 5758 5758 5759 5760 5761 5762 5763 5763 5764 5765 5766 5766 5767 5768 5768 5768 5769 5770 5771 5771 5772 5773 5773
5751 5751 5752 5753 5753 5751 5750 5749 5749 5748 5748 5747 5747 5747 5748 5749 5749 5750 5751 5752 5753 5754 5755 5755 5756 5757 5758 5758 5759 5760 5761 5761 5762 5762 5762 5763 5764 5765 5765 5766 5767 5768
5747 5747 5748 5748 5748 5747 5745 5744 5744 5743 5742 5741 5741 5741 5741 5742 5742 5744 5745 5746 5747 5748 5749 5750 5751 5752 5752 5753 5754 5755 5755 5756 5756 5756 5756 5757 5758 5759 5759 5760 5761 5762
5742 5743 5743 5744 5743 5742 5741 5740 5739 5738 5737 5735 5735 5735 5735 5735 5735 5737 5738 5739 5741 5742 5743 5744 5745 5746 5747 5748 5749 5749 5750 5750 5750 5750 5751 5751 5752 5753 5754 5755 5755 5756
5738 5739 5739 5740 5739 5738 5737 5735 5735 5734 5732 5730 5729 5729 5728 5728 5729 5730 5731 5733 5734 5736 5737 5739 5740 5742 5742 5743 5743 5744 5744 5745 5745 5745 5745 5745 5746 5747 5748 5749 5750 5751
5735 5735 5736 5736 5735 5734 5733 5731 5730 5729 5728 5726 5725 5723 5722 5723 5724 5724 5725 5727 5728 5730 5731 5733 5735 5736 5737 5737 5738 5738 5739 5739 5739 5740 5740 5740 5740 5741 5742 5743 5744 5745
5731 5731 5731 5731 5731 5730 5728 5727 5726 5725 5724 5723 5721 5719 5718 5718 5718 5718 5720 5722 5723 5725 5726 5727 5729 5730 5731 5732 5732 5733 5733 5734 5734 5734 5735 5735 5735 5736 5736 5737 5738 5739
5726 5727 5727 5727 5726 5725 5724 5723 5722 5721 5720 5719 5718 5717 5716 5715 5714 5714 5716 5717 5719 5720 5721 5722 5723 5724 5726 5726 5727 5728 5728 5728 5729 5729 5729 5730 5730 5730 5731 5731 5732 5733
5721 5722 5722 5722 5722 5721 5720 5719 5717 5716 5716 5716 5715 5714 5713 5712 5712 5712 5713 5713 5714 5715 5716 5717 5718 5719 5720 5721 5722 5723 5723 5723 5723 5724 5724 5724 5725 5725 5726 5726 5727 5727
5717 5718 5718 5717 5717 5717 5716 5715 5713 5712 5712 5712 5711 5710 5709 5709 5710 5710 5710 5710 5710 5711 5712 5713 5714 5714 5715 5716 5717 5717 5718 5718 5718 5718 5718 5719 5719 5719 5720 5720 5721 5721
5713 5713 5713 5713 5713 5713 5712 5711 5709 5708 5708 5707 5707 5707 5706 5706 5706 5706 5706 5707 5707 5708 5708 5709 5709 5710 5710 5711 5712 5712 5713 5713 5713 5713 5713 5713 5713 5714 5714 5715 5716 5716
5709 5710 5709 5709 5709 5709 5708 5707 5706 5704 5704 5703 5703 5703 5703 5703 5703 5703 5702 5702 5703 5704 5704 5704 5705 5705 5706 5706 5707 5707 5707 5707 5707 5707 5708 5708 5708 5709 5709 5710 5710 5711
5706 5706 5706 5705 5705 5705 5704 5703 5702 5701 5700 5700 5699 5699 5699 5699 5699 5699 5698 5698 5698 5699 5700 5700 5700 5700 5701 5701 5701 5702 5701 5701 5701 5701 5701 5702 5702 5703 5703 5703 5704 5705
5702 5702 5702 5702 5701 5700 5700 5700 5699 5698 5697 5697 5696 5695 5695 5695 5695 5695 5694 5694 5694 5694 5695 5695 5695 5695 5695 5695 5696 5696 5696 5695 5695 5695 5695 5695 5696 5696 5696 5697 5698 5698
5697 5697 5698 5698 5697 5696 5696 5696 5695 5695 5694 5694 5693 5692 5692 5692 5691 5691 5690 5690 5690 5690 5690 5691 5690 5690 5690 5690 5690 5690 5690 5690 5690 5689 5689 5689 5689 5690 5690 5691 5691 5691
Wind_Speed
39 39 39 39 39 40 40 40 40 40 40 40 40 40 40 39 39 38 38 37 36 35 34 33 32 32 31 31 30 30 30 31 30 29 29 29 29 29 29 29 28 27
39 39 39 39 39 40 41 42 42 41 41 42 42 42 42 41 41 41 40 40 39 38 37 36 35 34 34 33 33 32 33 33 32 32 32 31 31 31 31 31 30 29
39 39 39 39 38 39 39 40 42 42 42 42 42 43 43 42 42 41 41 41 41 40 39 38 38 37 37 36 36 35 35 35 34 34 33 33 33 33 33 32 32 31
38 38 39 39 39 38 38 39 39 40 42 43 43 43 43 42 42 41 41 41 41 41 40 40 39 39 39 39 39 38 38 37 37 36 35 35 35 34 34 34 34 33
36 37 37 38 38 38 38 38 38 39 40 42 43 44 44 43 43 42 42 41 41 41 41 41 41 41 41 41 41 41 40 40 40 39 38 37 36 36 35 36 36 35
34 35 36 37 37 38 38 39 39 39 40 41 43 44 44 44 44 44 43 43 42 41 41 41 41 41 42 42 42 42 42 41 41 41 40 39 39 38 37 37 37 37
33 35 35 36 37 38 39 40 41 41 40 41 42 43 43 44 44 44 44 44 43 42 42 42 42 42 42 43 43 42 42 42 41 41 41 40 40 39 39 38 38 38
34 35 36 36 37 37 38 39 40 41 41 41 41 42 42 42 43 43 43 43 43 42 42 42 42 42 43 43 43 43 43 42 41 41 41 41 41 40 40 40 39 39
35 35 35 36 37 38 38 39 39 40 40 40 41 41 42 42 42 41 41 42 42 42 42 42 42 42 43 43 43 43 43 43 42 42 42 42 42 42 42 42 41 41
34 34 35 35 36 37 38 39 40 41 41 41 41 41 42 42 42 42 41 41 41 41 41 41 41 41 42 43 43 43 43 43 42 42 43 43 43 44 44 44 43 43
34 34 35 35 36 36 38 39 40 41 42 42 42 42 42 42 42 42 41 41 41 40 40 41 41 41 41 42 42 43 43 43 43 43 43 44 44 45 45 45 45 45
34 34 34 34 34 35 37 38 39 40 41 42 43 43 43 43 42 42 41 41 41 40 40 40 40 40 41 41 42 43 43 44 44 44 45 45 45 46 46 46 46 45
34 34 34 34 34 35 37 38 38 39 40 42 44 45 45 43 42 42 41 41 40 40 39 39 40 40 40 41 41 41 41 42 43 43 44 45 46 47 46 46 46 45
34 34 34 33 34 35 36 36 36 36 39 41 42 44 45 45 43 43 43 42 41 41 41 40 40 41 41 40 40 41 41 42 42 42 42 43 44 45 45 45 45 45
34 34 33 33 33 35 35 35 35 35 37 39 40 42 44 46 45 44 44 44 43 44 44 43 41 41 41 42 42 43 44 44 43 43 42 42 43 43 44 45 45 45
34 33 33 32 33 34 35 35 34 34 35 37 38 41 44 46 47 46 46 45 45 45 45 44 42 41 42 43 43 44 45 46 45 43 42 43 44 44 45 45 45 46
34 33 32 32 32 34 35 35 35 34 33 34 35 37 40 42 43 46 47 46 45 45 43 42 42 42 42 43 43 44 45 45 44 42 42 43 44 45 46 46 46 47
34 33 32 32 32 33 34 35 35 34 32 32 31 31 32 35 38 41 43 44 43 43 42 41 41 42 42 43 44 44 44 43 42 41 41 42 43 43 44 45 45 45
33 32 32 32 32 32 33 34 34 33 31 30 29 27 27 30 34 36 37 39 39 39 39 38 38 39 40 42 42 42 42 41 40 40 41 42 43 43 43 44 44 44
32 32 32 32 31 30 31 31 32 32 31 29 28 26 26 27 28 29 31 33 34 35 35 35 36 36 37 38 39 39 38 39 39 40 41 41 42 42 42 43 43 43
32 32 31 31 30 28 28 28 29 29 30 29 28 27 26 26 25 25 27 29 31 31 32 32 33 34 35 35 35 36 36 38 38 39 39 39 39 40 40 41 41 42
31 31 31 30 28 26 26 26 26 26 27 29 29 28 28 27 26 26 28 30 30 30 29 29 30 31 32 33 33 34 35 36 36 37 37 37 37 38 38 39 39 40
30 30 29 28 26 25 24 24 24 25 25 27 28 29 29 28 27 28 30 32 31 29 27 28 28 29 30 32 33 33 34 34 34 35 35 36 37 38 38 38 38 39
29 29 27 26 25 25 24 23 24 24 24 24 25 27 28 29 29 31 33 34 33 30 28 28 30 31 33 34 34 35 36 36 36 36 37 37 38 39 39 40 40 40
29 29 27 26 26 25 24 24 23 23 23 23 24 25 26 28 29 31 33 34 34 33 32 31 32 34 34 35 36 37 37 37 37 37 37 37 38 38 39 39 40 40
30 29 27 26 26 26 25 24 23 23 23 23 24 24 25 26 28 29 30 31 32 33 33 32 33 33 33 34 35 35 34 34 34 35 36 36 36 37 37 38 38 39
Wind_Direction
266 266 266 267 268 268 267 267 267 268 267 265 262 258 256 254 252 251 250 250 250 250 251 252 253 255 256 258 259 260 261 261 262 261 261 261 261 261 261 262 262 263
266 267 268 268 268 269 268 268 269 270 270 269 267 264 261 259 257 255 254 253 252 252 252 253 254 256 257 258 258 259 260 261 262 262 262 262 262 262 261 261 262 262
265 266 268 268 269 269 269 270 270 270 271 271 270 268 266 264 262 261 260 259 258 257 257 257 257 258 260 260 260 260 261 261 262 262 262 262 262 262 262 262 263 262
263 265 267 268 269 270 271 271 271 271 270 270 270 269 268 267 265 264 264 264 264 264 263 263 262 262 262 263 263 263 263 263 263 263 262 262 263 263 263 263 263 262
264 265 266 268 270 271 271 271 271 270 270 269 268 267 267 266 265 264 263 263 264 265 265 265 265 265 264 265 265 265 266 266 266 266 265 264 263 263 263 263 263 263
266 267 267 267 268 269 270 269 269 269 268 268 268 267 266 266 265 264 264 263 263 263 264 264 265 265 265 265 265 266 266 266 267 267 267 266 265 264 263 263 263 264
267 268 268 269 269 269 269 269 269 269 269 268 268 268 268 267 266 265 265 264 264 264 264 264 264 264 265 265 265 265 266 266 267 268 268 268 268 267 265 264 264 264
267 267 268 268 269 269 270 270 270 270 269 268 267 266 266 266 266 265 265 264 264 263 263 263 263 264 265 265 265 265 266 266 266 267 268 268 269 268 268 267 266 265
268 267 267 268 269 270 271 271 270 269 268 267 265 265 265 264 264 264 263 263 263 262 262 262 263 264 265 266 266 266 266 266 266 266 266 267 267 268 268 268 267 266
269 268 268 268 268 269 269 270 270 269 268 267 266 265 264 264 263 263 262 262 263 263 262 262 262 263 264 265 266 266 266 266 266 266 265 265 266 266 266 266 266 266
268 268 267 268 269 270 271 271 271 270 269 268 267 266 265 264 264 264 263 263 263 263 262 261 261 261 262 263 265 265 266 266 266 266 265 265 265 264 265 265 265 265
268 268 269 270 272 273 274 274 273 272 270 268 266 265 265 265 263 262 262 262 262 262 261 261 260 260 261 262 263 264 265 265 265 265 264 264 264 264 264 263 264 264
268 269 270 272 274 274 275 275 275 274 272 269 266 263 262 262 262 260 259 258 257 257 258 259 259 259 259 261 262 263 264 265 265 265 265 264 263 263 263 263 262 262
269 270 272 273 274 275 275 276 276 275 274 271 268 263 260 258 259 258 257 256 254 254 254 256 256 256 257 259 261 263 266 268 268 268 267 265 263 262 262 261 261 261
269 272 273 273 274 276 276 276 276 275 275 273 270 265 260 256 256 256 255 254 254 254 254 255 256 256 257 259 261 264 266 268 269 269 268 267 265 263 261 260 260 260
268 270 271 271 272 274 275 276 276 276 277 277 274 269 262 258 256 254 253 253 254 255 256 256 256 257 258 259 261 263 265 266 267 267 268 267 265 264 262 261 261 260
266 268 268 269 271 273 274 274 275 276 278 280 279 274 267 261 258 255 253 253 254 256 257 258 257 258 260 260 260 261 264 264 264 265 266 266 265 264 263 262 262 262
266 266 267 269 270 272 273 274 273 274 277 280 281 278 271 265 262 258 255 254 256 257 259 260 257 257 260 260 259 260 262 262 262 262 263 264 264 263 263 263 263 263
265 266 268 270 271 272 273 275 274 273 274 277 279 278 273 267 264 261 258 256 257 258 259 260 258 257 258 259 259 260 261 260 260 261 261 261 261 261 262 262 262 263
265 266 268 270 271 272 274 276 276 272 270 272 275 276 275 271 267 265 262 260 259 258 259 260 261 260 259 258 260 261 262 262 261 261 261 260 260 260 260 260 260 260
265 266 268 270 272 273 275 276 277 273 269 268 270 272 273 272 270 268 265 263 264 264 264 265 264 263 262 262 263 264 265 264 263 262 261 261 261 261 260 260 260 260
263 265 268 271 272 273 275 276 277 275 271 267 267 268 270 271 269 268 266 265 266 267 267 266 266 266 266 266 266 265 265 264 263 262 262 262 262 262 262 262 261 261
261 264 267 269 269 270 273 276 278 278 275 271 268 267 268 268 268 269 268 267 268 267 265 265 266 266 266 266 265 265 264 264 264 264 264 264 263 263 264 264 263 263
259 261 262 263 265 267 270 273 276 277 278 277 273 270 269 267 266 267 268 269 271 270 267 267 269 269 268 267 266 266 266 267 268 268 268 267 266 266 266 266 265 265
258 258 258 258 261 265 268 270 273 275 277 276 275 273 272 270 269 268 267 269 271 270 268 270 274 274 272 271 270 269 269 269 269 270 270 269 269 268 268 268 267 267
257 258 257 256 258 262 265 268 270 272 273 273 274 274 275 275 275 274 272 272 272 271 268 269 272 273 272 272 271 270 270 270 270 270 270 271 271 271 270 270 270 269